EW4427 Weather Reports


time (UTC)temp
C
wind
direction
speed
KPH
gust
KPH
rain 1hr
cm
rain 24hr
cm
rain mn
cm
humidity
%
barometer
mb
20240723050546 20 186 1.6 6.4 0.00 0.00 0.00 82 1015.9
20240723050052 20 176 3.2 6.4 0.00 0.00 0.00 81 1015.9
20240723045546 20 178 1.6 8.0 0.00 0.00 0.00 81 1015.9
20240723045045 20 189 3.2 8.0 0.00 0.00 0.00 80 1015.8
20240723044546 20 184 3.2 8.0 0.00 0.00 0.00 80 1016.0
20240723044045 20 188 3.2 8.0 0.00 0.00 0.00 80 1016.0
20240723043545 20 180 1.6 8.0 0.00 0.00 0.00 79 1016.0
20240723043045 20 183 1.6 6.4 0.00 0.00 0.00 80 1015.9
20240723042547 20 180 1.6 8.0 0.00 0.00 0.00 80 1015.9
20240723042046 20 180 3.2 8.0 0.00 0.00 0.00 79 1015.9
20240723041545 20 183 3.2 6.4 0.00 0.00 0.00 79 1015.7
20240723041046 20 174 1.6 6.4 0.00 0.00 0.00 79 1015.7
20240723040547 20 0 0.0 6.4 0.00 0.00 0.00 78 1015.7
20240723040054 20 0 0.0 6.4 0.00 0.00 0.00 78 1015.8
20240723035545 20 0 1.6 6.4 0.00 0.00 0.00 78 1015.7
20240723035047 20 0 1.6 4.8 0.00 0.00 0.00 78 1015.7
20240723034549 20 0 0.0 4.8 0.00 0.00 0.00 78 1015.8
20240723034050 20 182 1.6 6.4 0.00 0.00 0.00 79 1015.6
20240723033549 20 186 1.6 6.4 0.00 0.00 0.00 78 1015.7
20240723033045 20 180 1.6 4.8 0.00 0.00 0.00 78 1015.6
20240723032545 20 0 0.0 3.2 0.00 0.00 0.00 77 1015.7
20240723032050 20 180 1.6 3.2 0.00 0.00 0.00 77 1015.6
20240723031548 20 0 0.0 1.6 0.00 0.00 0.00 73 1015.6
20240723031045 20 0 0.0 1.6 0.00 0.00 0.00 73 1015.7
20240723030545 20 0 0.0 1.6 0.00 0.00 0.00 73 1015.7
20240723030049 20 0 0.0 1.6 0.00 0.00 0.00 73 1015.7
20240723025545 20 0 0.0 0.0 0.00 0.00 0.00 72 1015.7
20240723025046 20 0 0.0 0.0 0.00 0.00 0.00 72 1015.7
20240723024546 20 0 0.0 0.0 0.00 0.00 0.00 73 1015.8
20240723024045 20 0 0.0 1.6 0.00 0.00 0.00 72 1015.8
20240723023545 20 0 0.0 1.6 0.00 0.00 0.00 71 1015.8
20240723023102 20 154 0.0 1.6 0.00 0.00 0.00 71 1015.7
20240723022548 21 0 0.0 0.0 0.00 0.00 0.00 70 1015.7
20240723022046 21 0 0.0 0.0 0.00 0.00 0.00 69 1015.8
20240723021549 21 0 0.0 0.0 0.00 0.00 0.00 69 1015.7
20240723021046 21 0 0.0 0.0 0.00 0.00 0.00 68 1015.6
20240723020550 21 0 0.0 0.0 0.00 0.00 0.00 69 1015.6
20240723020126 21 0 0.0 0.0 0.00 0.00 0.00 68 1015.5
20240723015546 21 0 0.0 0.0 0.00 0.00 0.00 67 1015.5
20240723015046 22 0 0.0 0.0 0.00 0.00 0.00 66 1015.3
20240723014549 22 0 0.0 0.0 0.00 0.00 0.00 66 1015.3
20240723014045 22 0 0.0 0.0 0.00 0.00 0.00 65 1015.2
20240723013546 22 0 0.0 0.0 0.00 0.00 0.00 65 1015.1
20240723013050 22 0 0.0 1.6 0.00 0.00 0.00 64 1015.2
20240723012546 22 0 0.0 1.6 0.00 0.00 0.00 63 1015.3
20240723012050 22 0 0.0 1.6 0.00 0.00 0.00 62 1015.3
20240723011548 23 0 0.0 1.6 0.00 0.00 0.00 62 1015.3
20240723011049 23 0 0.0 1.6 0.00 0.00 0.00 62 1015.3
20240723010545 23 0 0.0 1.6 0.00 0.00 0.00 62 1015.3
20240723010052 23 0 0.0 3.2 0.00 0.00 0.00 62 1015.3
20240723005549 23 0 0.0 4.8 0.00 0.00 0.00 62 1015.2
20240723005045 23 0 0.0 4.8 0.00 0.00 0.00 64 1015.2
20240723004550 23 0 0.0 6.4 0.00 0.00 0.00 63 1015.1
20240723004050 23 185 0.0 6.4 0.00 0.00 0.00 62 1015.1
20240723003545 24 192 0.0 1.6 0.00 0.00 0.00 61 1015.1
20240723003053 24 0 0.0 3.2 0.00 0.00 0.00 60 1015.0
20240723002544 24 153 0.0 3.2 0.00 0.00 0.00 59 1015.0
20240723002044 25 0 0.0 1.6 0.00 0.00 0.00 60 1014.9
20240723001549 25 0 0.0 3.2 0.00 0.00 0.00 58 1015.0
20240723001045 25 0 0.0 4.8 0.00 0.00 0.00 57 1014.9
20240723000547 25 126 0.0 4.8 0.00 0.00 0.00 57 1014.9
20240723000051 25 180 0.0 4.8 0.00 0.00 0.00 59 1014.9
20240722235546 25 173 0.0 4.8 0.00 0.00 0.00 57 1014.9
20240722235045 25 192 1.6 4.8 0.00 0.00 0.00 58 1014.8
20240722234545 26 164 0.0 3.2 0.00 0.00 0.00 57 1014.8
20240722234044 26 0 0.0 3.2 0.00 0.00 0.00 58 1014.7
20240722233547 26 0 0.0 1.6 0.00 0.00 0.00 58 1014.7
20240722233050 26 0 0.0 1.6 0.00 0.00 0.00 58 1014.7
20240722232544 26 0 0.0 3.2 0.00 0.00 0.00 58 1014.6
20240722232046 26 0 0.0 3.2 0.00 0.00 0.00 58 1014.6
20240722231546 26 169 0.0 1.6 0.00 0.00 0.00 57 1014.6
20240722231046 26 0 0.0 3.2 0.00 0.00 0.00 56 1014.6
20240722230545 26 0 0.0 3.2 0.00 0.00 0.00 56 1014.6
20240722230048 26 0 0.0 3.2 0.00 0.00 0.00 55 1014.7
20240722225546 26 0 0.0 1.6 0.00 0.00 0.00 55 1014.6
20240722225045 26 0 0.0 1.6 0.00 0.00 0.00 55 1014.6
20240722224548 26 0 0.0 9.7 0.00 0.00 0.00 55 1014.7
20240722224046 26 0 1.6 9.7 0.00 0.00 0.00 55 1014.9
20240722223545 27 180 0.0 3.2 0.00 0.00 0.00 55 1014.7
20240722223046 27 190 0.0 1.6 0.00 0.00 0.00 54 1014.8
20240722222545 27 0 0.0 1.6 0.00 0.00 0.00 54 1014.9
20240722222045 27 0 0.0 4.8 0.00 0.00 0.00 53 1014.9
20240722221553 27 0 0.0 4.8 0.00 0.00 0.00 53 1014.9
20240722221045 27 0 1.6 4.8 0.00 0.00 0.00 51 1015.0
20240722220546 27 0 0.0 9.7 0.00 0.00 0.00 51 1015.0
20240722220105 28 0 1.6 9.7 0.00 0.00 0.00 54 1015.1
20240722215544 28 178 0.0 4.8 0.00 0.00 0.00 50 1015.1
20240722215045 28 0 0.0 3.2 0.00 0.00 0.00 49 1015.2
20240722214549 28 0 0.0 3.2 0.00 0.00 0.00 48 1015.3
20240722214045 29 0 0.0 8.0 0.00 0.00 0.00 47 1015.3
20240722213546 29 0 3.2 8.0 0.00 0.00 0.00 48 1015.3
20240722213048 29 189 1.6 6.4 0.00 0.00 0.00 49 1015.4
20240722212545 30 0 0.0 4.8 0.00 0.00 0.00 47 1015.3
20240722212046 30 169 0.0 4.8 0.00 0.00 0.00 46 1015.4
20240722211555 30 0 0.0 4.8 0.00 0.00 0.00 47 1015.4
20240722211049 30 0 0.0 4.8 0.00 0.00 0.00 46 1015.5
20240722210545 30 0 0.0 4.8 0.00 0.00 0.00 47 1015.5
20240722210052 30 191 0.0 4.8 0.00 0.00 0.00 48 1015.5
20240722205547 30 0 0.0 4.8 0.00 0.00 0.00 48 1015.5
20240722205045 30 0 0.0 6.4 0.00 0.00 0.00 49 1015.5
20240722204549 30 167 1.6 6.4 0.00 0.00 0.00 50 1015.6
20240722204045 30 0 0.0 3.2 0.00 0.00 0.00 48 1015.7
20240722203545 30 0 0.0 3.2 0.00 0.00 0.00 51 1015.6
20240722203059 29 0 0.0 3.2 0.00 0.00 0.00 50 1015.8
20240722202545 29 169 0.0 3.2 0.00 0.00 0.00 51 1015.8
20240722202044 29 0 0.0 3.2 0.00 0.00 0.00 49 1016.1
20240722201549 29 12 0.0 3.2 0.00 0.00 0.00 48 1016.3
20240722201045 29 0 0.0 3.2 0.00 0.00 0.00 50 1016.3
20240722200546 29 188 0.0 4.8 0.00 0.00 0.00 47 1016.3
20240722200046 29 217 1.6 4.8 0.00 0.00 0.00 48 1016.4
20240722195546 29 0 0.0 3.2 0.00 0.00 0.00 48 1016.5
20240722195045 29 0 0.0 1.6 0.00 0.00 0.00 51 1016.5
20240722194558 28 0 0.0 3.2 0.00 0.00 0.00 52 1016.5
20240722194049 28 0 0.0 3.2 0.00 0.00 0.00 49 1016.6
20240722193545 28 0 0.0 3.2 0.00 0.00 0.00 50 1016.6
20240722193048 28 175 1.6 6.4 0.00 0.00 0.00 51 1016.7
20240722192545 28 173 1.6 6.4 0.00 0.00 0.00 53 1016.8
20240722192044 28 180 0.0 4.8 0.00 0.00 0.00 53 1016.7
20240722191551 28 0 1.6 4.8 0.00 0.00 0.00 52 1016.7
20240722191045 27 169 0.0 4.8 0.00 0.00 0.00 52 1016.8
20240722190546 27 165 1.6 4.8 0.00 0.00 0.00 53 1016.9
20240722190050 27 171 0.0 4.8 0.00 0.00 0.00 54 1016.9
20240722185544 26 0 0.0 4.8 0.00 0.00 0.00 53 1016.9
20240722185045 26 0 0.0 3.2 0.00 0.00 0.00 54 1016.9
20240722184549 26 0 0.0 6.4 0.00 0.00 0.00 56 1017.0
20240722184047 26 0 0.0 6.4 0.00 0.00 0.00 53 1017.0
20240722183546 26 355 0.0 6.4 0.00 0.00 0.00 55 1017.0
20240722183050 26 0 0.0 6.4 0.00 0.00 0.00 56 1017.1
20240722182548 26 351 0.0 3.2 0.00 0.00 0.00 56 1017.1
20240722182045 26 0 0.0 6.4 0.00 0.00 0.00 55 1017.1
20240722181553 26 0 1.6 6.4 0.00 0.00 0.00 58 1017.0
20240722181046 26 181 1.6 6.4 0.00 0.00 0.00 57 1017.0
20240722180547 25 192 1.6 6.4 0.00 0.00 0.00 59 1017.0
20240722180051 25 0 0.0 3.2 0.00 0.00 0.00 57 1017.0
20240722175545 25 0 0.0 4.8 0.00 0.00 0.00 56 1017.1
20240722175045 25 0 0.0 4.8 0.00 0.00 0.00 56 1017.1
20240722174604 25 0 0.0 3.2 0.00 0.00 0.00 58 1017.1
20240722174049 25 0 0.0 4.8 0.00 0.00 0.00 55 1017.2
20240722173546 25 0 0.0 4.8 0.00 0.00 0.00 54 1017.3
20240722173045 25 24 0.0 6.4 0.00 0.00 0.00 54 1017.3
20240722172544 25 0 1.6 6.4 0.00 0.00 0.00 53 1017.3
20240722172045 24 19 1.6 6.4 0.00 0.00 0.00 53 1017.3
20240722171554 24 76 1.6 6.4 0.00 0.00 0.00 52 1017.5
20240722171044 24 31 1.6 6.4 0.00 0.00 0.00 51 1017.4
20240722170545 24 40 0.0 3.2 0.00 0.00 0.00 55 1017.5
20240722170050 24 0 0.0 4.8 0.00 0.00 0.00 57 1017.7
20240722165545 24 0 0.0 4.8 0.00 0.00 0.00 56 1017.7
20240722165047 23 355 0.0 6.4 0.00 0.00 0.00 55 1017.7
20240722164622 23 42 0.0 6.4 0.00 0.00 0.00 60 1017.8
20240722164049 23 57 0.0 4.8 0.00 0.00 0.00 61 1017.8
20240722163545 23 0 0.0 4.8 0.00 0.00 0.00 63 1017.8
20240722163103 23 0 0.0 3.2 0.00 0.00 0.00 63 1017.7
20240722162545 23 13 0.0 6.4 0.00 0.00 0.00 65 1017.8
20240722162048 23 5 0.0 6.4 0.00 0.00 0.00 66 1017.8
20240722161553 22 26 1.6 6.4 0.00 0.00 0.00 66 1017.7
20240722161044 22 0 0.0 3.2 0.00 0.00 0.00 69 1017.8
20240722160545 22 46 0.0 4.8 0.00 0.00 0.00 68 1017.8
20240722160050 22 0 0.0 4.8 0.00 0.00 0.00 68 1017.8
20240722155544 22 0 0.0 3.2 0.00 0.00 0.00 70 1017.8
20240722155047 22 174 0.0 3.2 0.00 0.00 0.00 70 1017.8
20240722154550 22 0 0.0 3.2 0.00 0.00 0.00 69 1017.7
20240722154044 22 0 0.0 3.2 0.00 0.00 0.00 70 1017.8
20240722153545 21 138 0.0 1.6 0.00 0.00 0.00 71 1017.8
20240722153046 21 0 0.0 3.2 0.00 0.00 0.00 73 1017.8
20240722152545 21 0 0.0 4.8 0.00 0.00 0.00 72 1017.8
20240722152044 21 349 0.0 4.8 0.00 0.00 0.00 72 1017.7
20240722151546 21 0 0.0 3.2 0.00 0.00 0.00 73 1017.8
20240722151045 21 0 0.0 1.6 0.00 0.00 0.00 75 1017.8
20240722150545 21 0 0.0 4.8 0.00 0.00 0.00 75 1017.7
20240722150049 21 0 0.0 4.8 0.00 0.00 0.00 74 1017.7
20240722145545 21 0 0.0 3.2 0.00 0.00 0.00 77 1017.6
20240722145046 21 0 0.0 3.2 0.00 0.00 0.00 77 1017.7
20240722144638 20 0 0.0 3.2 0.00 0.00 0.00 76 1017.7
20240722144045 20 0 0.0 3.2 0.00 0.00 0.00 78 1017.7
20240722143545 20 0 0.0 3.2 0.00 0.00 0.00 78 1017.7
20240722143102 20 0 0.0 3.2 0.00 0.00 0.00 80 1017.7
20240722142545 20 0 0.0 1.6 0.00 0.00 0.00 81 1017.7
20240722142045 20 0 0.0 3.2 0.00 0.00 0.00 81 1017.9
20240722141551 20 0 0.0 3.2 0.00 0.00 0.00 82 1017.9
20240722141047 20 27 0.0 1.6 0.00 0.00 0.00 82 1017.8
20240722140544 19 0 0.0 4.8 0.00 0.00 0.00 81 1017.9
20240722140047 19 0 0.0 8.0 0.00 0.00 0.00 82 1017.8
20240722135547 19 0 0.0 8.0 0.00 0.00 0.00 85 1017.9
20240722135044 18 360 1.6 8.0 0.00 0.00 0.00 85 1017.9
20240722134548 18 21 0.0 4.8 0.00 0.00 0.00 88 1017.9
20240722134044 18 0 0.0 6.4 0.00 0.00 0.00 89 1017.9
20240722133549 18 0 1.6 6.4 0.00 0.00 0.00 91 1017.9
20240722133055 18 5 1.6 4.8 0.00 0.00 0.00 93 1017.9
20240722132545 18 15 0.0 4.8 0.00 0.00 0.00 94 1018.0
20240722132045 18 0 1.6 4.8 0.00 0.00 0.00 94 1018.1
20240722131550 18 19 0.0 3.2 0.00 0.00 0.00 95 1018.1
20240722131045 17 0 0.0 3.2 0.00 0.00 0.00 95 1018.0
20240722130546 17 0 0.0 3.2 0.00 0.00 0.00 95 1018.0
20240722130054 17 0 0.0 4.8 0.00 0.00 0.00 95 1017.9
20240722125545 17 19 1.6 4.8 0.00 0.00 0.00 95 1018.0
20240722125049 17 28 1.6 4.8 0.00 0.00 0.00 95 1017.9
20240722124545 17 0 0.0 3.2 0.00 0.00 0.00 95 1017.8
20240722124044 17 24 0.0 3.2 0.00 0.00 0.00 95 1017.8
20240722123547 17 37 0.0 3.2 0.00 0.00 0.00 95 1017.8
20240722123050 17 0 0.0 3.2 0.00 0.00 0.00 95 1017.8
20240722122546 16 29 0.0 3.2 0.00 0.00 0.00 95 1017.7
20240722122044 16 36 0.0 1.6 0.00 0.00 0.00 95 1017.8
20240722121553 16 0 0.0 1.6 0.00 0.00 0.00 94 1017.8
20240722121047 16 0 0.0 1.6 0.00 0.00 0.00 94 1017.7
20240722120544 16 0 0.0 0.0 0.00 0.00 0.00 94 1017.7
20240722120108 16 0 0.0 0.0 0.00 0.00 0.00 94 1017.6
20240722115548 16 0 0.0 0.0 0.00 0.00 0.00 94 1017.7
20240722115045 16 0 0.0 1.6 0.00 0.00 0.00 94 1017.7
20240722114551 16 0 0.0 1.6 0.00 0.00 0.00 94 1017.6
20240722114045 16 0 0.0 1.6 0.00 0.00 0.00 94 1017.6
20240722113545 16 0 0.0 1.6 0.00 0.00 0.00 94 1017.6
20240722113057 16 0 0.0 1.6 0.00 0.00 0.00 94 1017.5
20240722112547 16 0 0.0 1.6 0.00 0.00 0.00 93 1017.6
20240722112042 16 0 0.0 3.2 0.00 0.00 0.00 93 1017.7
20240722111555 16 0 0.0 3.2 0.00 0.00 0.00 93 1017.7
20240722111045 16 0 0.0 1.6 0.00 0.00 0.00 93 1017.7
20240722110547 16 0 0.0 1.6 0.00 0.00 0.00 93 1017.6
20240722110049 16 0 0.0 1.6 0.00 0.00 0.00 93 1017.5
20240722105542 16 0 0.0 3.2 0.00 0.00 0.00 93 1017.5
20240722105048 16 0 0.0 3.2 0.00 0.00 0.00 93 1017.5
20240722104551 16 0 0.0 3.2 0.00 0.00 0.00 93 1017.5
20240722104046 16 0 0.0 3.2 0.00 0.00 0.00 93 1017.5
20240722103546 16 5 0.0 3.2 0.00 0.00 0.00 93 1017.5
20240722103046 16 0 0.0 1.6 0.00 0.00 0.00 92 1017.5
20240722102545 16 0 0.0 1.6 0.00 0.00 0.00 92 1017.5
20240722102044 16 0 0.0 1.6 0.00 0.00 0.00 92 1017.5
20240722101546 16 21 0.0 1.6 0.00 0.00 0.00 92 1017.6
20240722101044 16 0 0.0 0.0 0.00 0.00 0.00 92 1017.7
20240722100545 16 0 0.0 0.0 0.00 0.00 0.00 92 1017.6
20240722100100 16 0 0.0 0.0 0.00 0.00 0.00 92 1017.7
20240722095545 16 0 0.0 0.0 0.00 0.00 0.00 92 1017.7
20240722095044 16 0 0.0 1.6 0.00 0.00 0.00 92 1017.7
20240722094549 16 0 0.0 1.6 0.00 0.00 0.00 92 1017.7
20240722094044 16 0 0.0 1.6 0.00 0.00 0.00 91 1017.7
20240722093546 16 0 0.0 1.6 0.00 0.00 0.00 91 1017.6
20240722093053 16 0 0.0 1.6 0.00 0.00 0.00 91 1017.7
20240722092545 16 0 0.0 0.0 0.00 0.00 0.00 91 1017.5
20240722092044 16 0 0.0 0.0 0.00 0.00 0.00 91 1017.7
20240722091547 16 0 0.0 0.0 0.00 0.00 0.00 91 1017.7
20240722091045 16 0 0.0 0.0 0.00 0.00 0.00 91 1017.5
20240722090545 16 0 0.0 0.0 0.00 0.00 0.00 91 1017.5
20240722090050 16 0 0.0 1.6 0.00 0.00 0.00 92 1017.5
20240722085543 16 0 0.0 1.6 0.00 0.00 0.00 92 1017.5
20240722085045 16 0 0.0 1.6 0.00 0.00 0.00 92 1017.6
20240722084545 16 21 0.0 1.6 0.00 0.00 0.00 91 1017.5
20240722084044 16 0 0.0 0.0 0.00 0.00 0.00 91 1017.6
20240722083545 16 0 0.0 0.0 0.00 0.00 0.00 91 1017.8
20240722083052 16 0 0.0 0.0 0.00 0.00 0.00 91 1017.8
20240722082547 16 0 0.0 1.6 0.00 0.00 0.00 91 1017.7
20240722082044 16 0 0.0 1.6 0.00 0.00 0.00 91 1017.9
20240722081557 16 21 0.0 1.6 0.00 0.00 0.00 91 1017.9
20240722081044 16 0 0.0 1.6 0.00 0.00 0.00 91 1017.9
20240722080547 16 0 0.0 1.6 0.00 0.00 0.00 90 1018.0
20240722080050 16 0 0.0 0.0 0.00 0.00 0.00 90 1018.0
20240722075544 16 0 0.0 0.0 0.00 0.00 0.00 90 1018.0
20240722075047 16 0 0.0 0.0 0.00 0.00 0.00 90 1017.9
20240722074548 16 0 0.0 0.0 0.00 0.00 0.00 90 1017.9
20240722074045 16 0 0.0 0.0 0.00 0.00 0.00 90 1017.9
20240722073549 16 0 0.0 0.0 0.00 0.00 0.00 89 1018.0
20240722073047 16 0 0.0 0.0 0.00 0.00 0.00 89 1018.0
20240722072544 16 0 0.0 1.6 0.00 0.00 0.00 89 1018.0
20240722072044 16 0 0.0 1.6 0.00 0.00 0.00 89 1018.0
20240722071556 16 0 0.0 0.0 0.00 0.00 0.00 89 1017.9
20240722071044 16 0 0.0 0.0 0.00 0.00 0.00 88 1018.1
20240722070544 16 0 0.0 1.6 0.00 0.00 0.00 88 1017.9
20240722070049 16 0 0.0 1.6 0.00 0.00 0.00 88 1018.1
20240722065544 16 0 0.0 1.6 0.00 0.00 0.00 88 1018.2
20240722065044 16 0 0.0 1.6 0.00 0.00 0.00 88 1018.3
20240722064550 16 0 0.0 0.0 0.00 0.00 0.00 88 1018.4
20240722064047 16 0 0.0 0.0 0.00 0.00 0.00 88 1018.5
20240722063544 16 0 0.0 0.0 0.00 0.00 0.00 88 1018.5
20240722063057 16 0 0.0 1.6 0.00 0.00 0.00 88 1018.6
20240722062544 16 0 0.0 1.6 0.00 0.00 0.00 88 1018.6
20240722062044 17 0 0.0 1.6 0.00 0.00 0.00 87 1018.6
20240722061548 17 0 0.0 0.0 0.00 0.00 0.00 87 1018.8
20240722061044 17 0 0.0 0.0 0.00 0.00 0.00 87 1018.7
20240722060546 17 0 0.0 0.0 0.00 0.00 0.00 86 1018.8
20240722060050 17 0 0.0 0.0 0.00 0.00 0.00 86 1018.7
20240722055546 17 0 0.0 0.0 0.00 0.00 0.00 87 1018.8
20240722055047 17 0 0.0 0.0 0.00 0.00 0.00 87 1018.9
20240722054613 17 0 0.0 0.0 0.00 0.00 0.00 87 1018.8
20240722054044 17 0 0.0 1.6 0.00 0.00 0.00 87 1018.8
20240722053544 17 0 0.0 1.6 0.00 0.00 0.00 87 1018.9
20240722053047 17 0 0.0 1.6 0.00 0.00 0.00 87 1018.9
20240722052545 17 0 0.0 1.6 0.00 0.00 0.00 87 1018.9
20240722052044 17 0 0.0 1.6 0.00 0.00 0.00 86 1019.1
20240722051553 17 0 0.0 1.6 0.00 0.00 0.00 86 1018.8
20240722051047 17 0 0.0 1.6 0.00 0.00 0.00 84 1018.9